TimeEDT,TemperatureF,Dew PointF,Humidity,Sea Level PressureIn,VisibilityMPH,Wind Direction,Wind SpeedMPH,Gust SpeedMPH,PrecipitationIn,Events,Conditions,WindDirDegrees,DateUTC
12:15 AM,62.6,57.2,82,30.02,10.0,NNE,8.1,-,N/A,,Overcast,20,2013-08-30 04:15:00
12:35 AM,62.6,57.2,82,30.02,10.0,NNE,8.1,-,N/A,,Overcast,20,2013-08-30 04:35:00
12:55 AM,62.6,57.2,82,30.02,10.0,NNE,5.8,-,N/A,,Overcast,20,2013-08-30 04:55:00
1:15 AM,62.6,59.0,88,30.01,10.0,NNE,6.9,-,N/A,,Overcast,20,2013-08-30 05:15:00
1:35 AM,62.6,59.0,88,30.01,10.0,North,5.8,-,N/A,,Overcast,10,2013-08-30 05:35:00
1:55 AM,62.6,59.0,88,30.00,10.0,NNE,6.9,-,N/A,,Overcast,20,2013-08-30 05:55:00
2:15 AM,62.6,59.0,88,30.00,10.0,North,9.2,-,N/A,,Overcast,350,2013-08-30 06:15:00
2:35 AM,62.6,57.2,82,30.00,10.0,North,9.2,-,N/A,,Overcast,350,2013-08-30 06:35:00
2:55 AM,62.6,59.0,88,29.99,10.0,North,5.8,-,N/A,,Overcast,360,2013-08-30 06:55:00
3:15 AM,62.6,57.2,82,29.99,10.0,North,5.8,-,N/A,,Overcast,360,2013-08-30 07:15:00
3:35 AM,62.6,59.0,88,29.99,10.0,North,8.1,-,N/A,,Overcast,350,2013-08-30 07:35:00
3:55 AM,62.6,59.0,88,29.98,10.0,NNW,6.9,-,N/A,,Overcast,330,2013-08-30 07:55:00
4:15 AM,62.6,59.0,88,29.97,10.0,NNW,5.8,-,N/A,,Overcast,340,2013-08-30 08:15:00
4:35 AM,62.6,59.0,88,29.97,10.0,North,5.8,-,N/A,,Overcast,350,2013-08-30 08:35:00
4:55 AM,62.6,57.2,82,29.97,10.0,NE,4.6,-,N/A,,Overcast,50,2013-08-30 08:55:00
5:15 AM,60.8,59.0,94,29.97,10.0,Calm,Calm,-,N/A,,Overcast,0,2013-08-30 09:15:00
5:35 AM,62.6,59.0,88,29.97,10.0,Calm,Calm,-,N/A,,Overcast,0,2013-08-30 09:35:00
5:55 AM,62.6,59.0,88,29.98,10.0,NW,8.1,-,N/A,,Overcast,320,2013-08-30 09:55:00
6:15 AM,62.6,59.0,88,29.99,10.0,NW,5.8,-,N/A,,Overcast,320,2013-08-30 10:15:00
6:35 AM,62.6,59.0,88,29.99,10.0,NW,6.9,-,N/A,,Overcast,320,2013-08-30 10:35:00
6:55 AM,62.6,60.8,94,29.99,10.0,NW,8.1,-,N/A,,Overcast,320,2013-08-30 10:55:00
7:15 AM,62.6,60.8,94,29.99,10.0,NW,8.1,-,N/A,,Overcast,310,2013-08-30 11:15:00
7:35 AM,64.4,59.0,83,29.98,10.0,WNW,6.9,-,N/A,,Overcast,300,2013-08-30 11:35:00
7:55 AM,64.4,59.0,83,29.98,10.0,WNW,6.9,-,N/A,,Overcast,290,2013-08-30 11:55:00
8:15 AM,64.4,60.8,88,29.98,10.0,WNW,8.1,-,N/A,,Overcast,290,2013-08-30 12:15:00
8:35 AM,64.4,59.0,83,29.98,10.0,West,8.1,-,N/A,,Overcast,280,2013-08-30 12:35:00
8:55 AM,64.4,60.8,88,29.97,10.0,West,8.1,-,N/A,,Overcast,270,2013-08-30 12:55:00
9:15 AM,64.4,59.0,83,29.98,10.0,West,10.4,-,N/A,,Overcast,280,2013-08-30 13:15:00
9:35 AM,64.4,60.8,88,29.98,10.0,West,9.2,-,N/A,,Overcast,260,2013-08-30 13:35:00
9:55 AM,64.4,59.0,83,29.98,10.0,West,11.5,-,N/A,,Overcast,260,2013-08-30 13:55:00
10:15 AM,66.2,60.8,83,29.98,10.0,West,10.4,-,N/A,,Overcast,260,2013-08-30 14:15:00
10:35 AM,66.2,60.8,83,29.97,10.0,West,10.4,-,N/A,,Overcast,270,2013-08-30 14:35:00
10:55 AM,68.0,60.8,78,29.96,10.0,WSW,9.2,-,N/A,,Overcast,240,2013-08-30 14:55:00
11:15 AM,68.0,60.8,78,29.96,10.0,WSW,12.7,-,N/A,,Overcast,240,2013-08-30 15:15:00
11:35 AM,69.8,60.8,73,29.95,10.0,WSW,12.7,-,N/A,,Overcast,240,2013-08-30 15:35:00
11:55 AM,69.8,62.6,78,29.95,10.0,WSW,13.8,-,N/A,,Overcast,250,2013-08-30 15:55:00
12:15 PM,69.8,62.6,78,29.94,10.0,WSW,11.5,-,N/A,,Overcast,240,2013-08-30 16:15:00
12:35 PM,69.8,62.6,78,29.93,10.0,WSW,12.7,-,N/A,,Overcast,250,2013-08-30 16:35:00
12:55 PM,71.6,62.6,73,29.93,10.0,WSW,15.0,19.6,N/A,,Overcast,250,2013-08-30 16:55:00
1:15 PM,71.6,62.6,73,29.92,10.0,WSW,13.8,-,N/A,,Scattered Clouds,250,2013-08-30 17:15:00
1:35 PM,73.4,64.4,73,29.91,10.0,WSW,11.5,-,N/A,,Clear,240,2013-08-30 17:35:00
1:55 PM,73.4,64.4,73,29.90,10.0,WSW,15.0,18.4,N/A,,Clear,250,2013-08-30 17:55:00
2:15 PM,73.4,64.4,73,29.90,10.0,WSW,13.8,-,N/A,,Clear,250,2013-08-30 18:15:00
2:35 PM,75.2,64.4,69,29.89,10.0,WSW,12.7,-,N/A,,Clear,250,2013-08-30 18:35:00
2:55 PM,75.2,64.4,69,29.88,10.0,SW,8.1,-,N/A,,Clear,230,2013-08-30 18:55:00
3:15 PM,75.2,64.4,69,29.88,10.0,SW,11.5,-,N/A,,Clear,230,2013-08-30 19:15:00
3:35 PM,73.4,64.4,73,29.88,10.0,SSW,11.5,-,N/A,,Clear,200,2013-08-30 19:35:00
3:55 PM,73.4,64.4,73,29.88,10.0,SSW,11.5,-,N/A,,Clear,210,2013-08-30 19:55:00
4:15 PM,73.4,64.4,73,29.87,10.0,SSW,10.4,-,N/A,,Clear,210,2013-08-30 20:15:00
4:35 PM,73.4,66.2,78,29.87,10.0,SSW,12.7,-,N/A,,Clear,210,2013-08-30 20:35:00
4:55 PM,73.4,64.4,73,29.87,10.0,SSW,9.2,-,N/A,,Clear,210,2013-08-30 20:55:00
5:15 PM,73.4,66.2,78,29.87,10.0,SSW,11.5,-,N/A,,Clear,200,2013-08-30 21:15:00
5:35 PM,73.4,66.2,78,29.86,10.0,SSW,12.7,-,N/A,,Clear,210,2013-08-30 21:35:00
5:55 PM,71.6,64.4,78,29.86,10.0,SSW,12.7,16.1,N/A,,Clear,210,2013-08-30 21:55:00
6:15 PM,71.6,66.2,83,29.86,10.0,SSW,11.5,-,N/A,,Clear,210,2013-08-30 22:15:00
6:35 PM,69.8,64.4,83,29.86,10.0,SSW,11.5,17.3,N/A,,Clear,210,2013-08-30 22:35:00
6:55 PM,69.8,64.4,83,29.86,10.0,SSW,11.5,-,N/A,,Clear,210,2013-08-30 22:55:00
7:15 PM,68.0,64.4,88,29.86,10.0,SSW,10.4,-,N/A,,Clear,210,2013-08-30 23:15:00
7:35 PM,68.0,64.4,88,29.87,10.0,SSW,11.5,-,N/A,,Clear,210,2013-08-30 23:35:00
7:55 PM,68.0,64.4,88,29.87,10.0,SSW,10.4,-,N/A,,Clear,200,2013-08-30 23:55:00
8:15 PM,66.2,64.4,94,29.86,10.0,SSW,11.5,-,N/A,,Clear,210,2013-08-31 00:15:00
8:35 PM,66.2,64.4,94,29.87,10.0,SSW,10.4,-,N/A,,Clear,210,2013-08-31 00:35:00
8:55 PM,66.2,64.4,94,29.87,10.0,SSW,10.4,-,N/A,,Clear,210,2013-08-31 00:55:00
9:15 PM,66.2,64.4,94,29.86,10.0,SSW,10.4,-,N/A,,Clear,210,2013-08-31 01:15:00
9:35 PM,66.2,66.2,100,29.86,10.0,SSW,9.2,-,N/A,,Clear,210,2013-08-31 01:35:00
9:55 PM,66.2,64.4,94,29.86,10.0,SSW,8.1,-,N/A,,Clear,210,2013-08-31 01:55:00
10:15 PM,66.2,66.2,100,29.86,10.0,SSW,8.1,-,N/A,,Clear,200,2013-08-31 02:15:00
10:35 PM,66.2,66.2,100,29.87,10.0,SSW,8.1,-,N/A,,Clear,200,2013-08-31 02:35:00
10:55 PM,66.2,64.4,94,29.86,10.0,SSW,9.2,-,N/A,,Clear,200,2013-08-31 02:55:00
11:15 PM,66.2,66.2,100,29.86,10.0,SSW,9.2,-,N/A,,Clear,200,2013-08-31 03:15:00
11:35 PM,68.0,66.2,94,29.86,10.0,SSW,9.2,-,N/A,,Clear,210,2013-08-31 03:35:00
11:55 PM,68.0,66.2,94,29.86,10.0,SSW,11.5,-,N/A,,Clear,210,2013-08-31 03:55:00